Simultaneous Nadir Overpasses (SNOs) Predictions

Prediction of SNOs between GOES-16 and FY3D Satellite Orbit:

Table of predicted SNOs for the next 14.0 days since TLE Epoch: 4/2/2022
Index Date Time (GOES-16) GOES-16 Lat,Lon FY3D Lat,Lon Distance(km) Time Diff (sec)
1 04/02/2022 18:33:56 0.05, -75.22 0.71, -72.24 338.92 80
2 04/04/2022 06:58:56 -0.05, -75.22 0.51, -77.62 274.17 80
3 04/05/2022 06:37:52 -0.05, -75.22 -0.49, -73.17 233.64 80
4 04/06/2022 19:03:02 0.05, -75.23 -0.73, -78.59 383.32 80
5 04/07/2022 18:44:38 0.05, -75.24 0.27, -74.14 124.91 80
6 04/09/2022 07:06:57 -0.04, -75.25 0.95, -79.52 487.17 80
7 04/10/2022 06:45:54 -0.04, -75.26 -0.05, -75.07 21.38 80
8 04/12/2022 18:52:40 0.03, -75.29 -0.16, -76.04 86.04 80
9 04/13/2022 18:31:36 0.03, -75.30 0.84, -71.59 423.05 80
10 04/15/2022 06:56:36 -0.02, -75.33 0.37, -76.97 187.62 80
